TimePDT,TemperatureF,Dew PointF,Humidity,Sea Level PressureIn,VisibilityMPH,Wind Direction,Wind SpeedMPH,Gust SpeedMPH,PrecipitationIn,Events,Conditions,WindDirDegrees,DateUTC
12:53 AM,55.0,19.0,24,30.11,10.0,ENE,9.2,-,N/A,,Clear,70,2013-04-10 07:53:00
1:53 AM,53.1,19.0,26,30.10,10.0,East,8.1,-,N/A,,Clear,80,2013-04-10 08:53:00
2:53 AM,53.1,19.0,26,30.09,10.0,East,4.6,-,N/A,,Clear,90,2013-04-10 09:53:00
3:53 AM,52.0,19.0,27,30.09,10.0,ENE,4.6,-,N/A,,Clear,70,2013-04-10 10:53:00
4:53 AM,50.0,19.0,29,30.09,10.0,Calm,Calm,-,N/A,,Clear,0,2013-04-10 11:53:00
5:53 AM,50.0,19.9,31,30.12,10.0,ESE,3.5,-,N/A,,Clear,120,2013-04-10 12:53:00
6:53 AM,50.0,21.0,32,30.15,10.0,East,4.6,-,N/A,,Clear,80,2013-04-10 13:53:00
7:53 AM,53.1,21.0,29,30.17,10.0,East,3.5,-,N/A,,Clear,90,2013-04-10 14:53:00
8:53 AM,61.0,19.0,20,30.17,10.0,NE,6.9,-,N/A,,Clear,40,2013-04-10 15:53:00
9:53 AM,63.0,15.1,16,30.17,10.0,North,13.8,-,N/A,,Clear,10,2013-04-10 16:53:00
10:53 AM,64.0,14.0,14,30.17,10.0,North,8.1,16.1,N/A,,Clear,360,2013-04-10 17:53:00
11:53 AM,68.0,12.9,12,30.14,10.0,NNE,17.3,26.5,N/A,,Clear,20,2013-04-10 18:53:00
12:53 PM,69.1,10.9,11,30.10,10.0,NNE,12.7,-,N/A,,Clear,20,2013-04-10 19:53:00
1:53 PM,70.0,14.0,12,30.07,10.0,ENE,8.1,-,N/A,,Clear,60,2013-04-10 20:53:00
2:53 PM,71.1,14.0,11,30.03,10.0,Variable,6.9,-,N/A,,Clear,0,2013-04-10 21:53:00
3:53 PM,72.0,12.9,10,30.00,10.0,East,6.9,-,N/A,,Clear,100,2013-04-10 22:53:00
4:53 PM,73.9,12.9,10,29.98,10.0,East,4.6,-,N/A,,Clear,100,2013-04-10 23:53:00
5:53 PM,73.0,14.0,11,29.97,10.0,South,12.7,-,N/A,,Clear,190,2013-04-11 00:53:00
6:53 PM,71.1,15.1,12,29.96,10.0,South,5.8,-,N/A,,Clear,180,2013-04-11 01:53:00
7:53 PM,66.9,15.1,14,29.97,10.0,ESE,6.9,-,N/A,,Clear,120,2013-04-11 02:53:00
8:53 PM,66.0,15.1,14,29.97,10.0,East,3.5,-,N/A,,Clear,100,2013-04-11 03:53:00
9:53 PM,63.0,19.0,18,29.99,10.0,North,4.6,-,N/A,,Clear,350,2013-04-11 04:53:00
10:53 PM,60.1,19.9,21,29.98,10.0,NNW,3.5,-,N/A,,Clear,330,2013-04-11 05:53:00
11:53 PM,57.9,21.9,25,29.97,10.0,NNW,5.8,-,N/A,,Clear,340,2013-04-11 06:53:00